Theta_e
337 337 336 336 337 337 336 335 335 336 336 335 336 335 332 332 332 331 330 329 328 326 325 326 325 326 328 331 333 334 331 331 331 330 330 332 333 337 339 338 336 336 335 335 335 334 335 334 335 334 334 333 332 332 332 332 333 332 331 331 331 331 330 330 331 331 331 331 331 331 331 331 332 333 334 335 335 335 336 336 337 338 338 338 339
337 337 336 336 337 337 337 336 335 335 334 333 334 333 332 332 331 331 331 330 329 329 330 327 327 327 327 330 332 331 331 331 331 331 332 332 333 336 340 338 337 336 336 336 336 335 336 334 335 335 335 333 333 333 333 332 333 334 333 333 332 332 332 332 332 332 331 331 331 332 332 332 333 334 334 334 335 336 336 337 337 338 338 338 338
337 338 337 337 336 335 335 336 335 334 333 333 333 332 331 332 332 331 330 330 330 330 330 329 328 328 332 332 332 330 330 332 332 332 332 332 333 334 338 340 338 337 337 337 336 336 337 335 335 336 335 334 334 334 334 334 334 334 334 334 334 333 333 333 333 333 332 331 332 332 333 333 333 334 334 335 336 336 337 337 338 338 339 339 338
336 337 336 335 335 334 334 334 334 334 334 333 332 333 331 332 334 333 332 331 331 332 333 328 330 331 333 335 334 332 331 330 332 332 332 332 333 334 335 336 339 338 337 337 336 337 336 337 337 336 335 336 336 336 336 336 336 335 334 334 335 334 334 333 333 332 331 332 333 333 334 334 334 335 335 336 336 337 337 337 338 338 339 339 339
336 338 342 337 336 334 334 334 334 334 333 333 332 332 332 331 331 334 332 332 334 333 335 332 332 334 335 338 336 334 334 333 332 332 333 333 333 334 334 336 335 338 338 338 337 337 337 337 337 337 337 338 338 337 337 336 335 334 334 335 335 335 334 334 333 333 332 333 333 334 334 335 335 336 336 337 337 337 338 338 339 338 339 339 338
336 337 338 336 336 337 334 333 333 332 332 332 331 331 331 331 331 332 340 333 332 334 332 333 333 334 336 337 337 335 335 337 333 332 333 333 333 334 334 335 334 334 336 339 338 338 338 338 338 338 338 338 338 338 337 337 336 336 335 336 336 336 336 336 335 334 333 333 334 334 335 335 336 336 337 337 338 338 339 339 339 339 339 339 339
337 336 335 336 337 336 335 335 335 334 332 331 331 330 330 332 332 330 330 330 333 336 331 333 335 336 336 337 339 337 334 335 335 334 333 333 333 333 334 334 334 334 335 333 340 339 339 339 339 339 339 339 339 338 338 338 338 337 337 336 336 336 336 338 336 336 335 335 335 335 335 336 336 337 338 339 339 339 339 339 339 339 340 339 339
338 337 335 336 336 335 334 336 337 336 334 329 331 330 329 332 334 330 330 329 333 331 332 333 335 335 334 335 336 340 332 332 334 335 334 333 332 332 333 334 334 333 337 333 333 336 340 339 339 339 339 339 339 339 339 339 339 338 337 337 338 337 337 339 338 337 337 337 336 336 336 337 337 338 339 339 339 340 340 340 340 340 340 340 339
338 337 335 336 335 335 334 334 337 334 333 329 331 331 330 332 330 334 329 329 330 331 331 334 333 333 333 332 333 335 330 332 332 334 337 332 332 332 332 333 335 340 336 334 333 333 338 340 340 340 339 339 340 339 340 340 340 339 338 338 338 338 338 340 340 339 339 338 338 338 338 338 338 339 340 340 341 340 341 340 340 340 341 340 339
337 337 335 335 335 335 334 334 335 334 332 329 329 332 330 330 328 330 331 329 329 330 330 331 335 333 331 332 332 331 330 330 334 341 333 333 332 332 332 332 334 336 336 335 334 334 334 338 341 341 340 340 340 340 340 340 340 340 340 340 340 340 339 340 341 341 341 340 340 340 340 340 340 341 341 341 341 341 341 341 341 341 341 340 340
336 337 336 336 335 334 333 334 335 333 333 331 327 329 330 328 328 327 331 329 329 330 331 332 333 332 331 331 331 331 331 333 338 334 332 334 338 337 336 333 334 336 336 335 334 333 333 332 333 336 338 342 341 341 341 341 340 340 340 341 341 341 340 341 342 342 342 342 341 341 341 341 341 341 342 342 342 342 342 342 342 342 340 340 340
336 337 336 337 334 334 332 333 334 334 332 331 328 327 328 329 328 327 326 330 332 331 330 332 329 328 334 331 331 332 332 336 334 334 336 334 333 333 333 333 335 336 337 336 335 334 333 332 334 333 334 337 340 341 341 341 341 341 341 341 342 342 342 342 343 343 343 343 343 343 342 342 342 343 341 341 341 340 340 341 340 340 340 339 339
339 337 336 339 336 333 333 333 334 335 333 331 330 328 327 330 330 331 327 325 325 329 331 331 328 325 325 325 328 331 335 338 334 333 334 333 333 332 332 332 333 334 334 334 334 335 334 333 333 333 332 332 333 338 340 341 342 341 342 342 342 342 343 343 344 343 343 344 344 343 343 342 341 342 342 342 342 341 341 341 340 340 340 340 340
340 338 337 336 335 333 333 333 333 335 335 335 332 341 333 331 330 327 330 325 324 329 329 329 323 321 322 322 321 324 328 333 331 333 333 333 333 331 331 332 332 333 333 333 333 335 336 335 334 334 333 332 331 332 334 337 338 340 341 342 342 343 343 343 344 344 344 344 344 344 344 343 343 342 342 342 342 342 342 342 342 342 341 341 340
338 339 337 335 335 334 334 333 333 336 336 334 334 333 331 332 330 327 325 326 327 330 327 326 322 323 323 321 316 315 320 320 326 331 334 332 332 332 333 333 333 333 333 332 332 333 334 334 333 334 332 331 332 333 334 337 335 338 340 341 342 342 343 343 344 343 344 344 344 344 344 343 343 343 343 343 343 343 343 343 343 343 342 341 341
336 336 338 336 335 335 334 333 332 336 334 332 332 332 330 329 330 330 327 322 323 324 328 326 325 324 318 318 319 315 312 315 319 326 334 333 333 332 334 334 334 333 331 332 332 332 331 335 336 335 331 332 332 333 333 332 336 338 339 340 341 341 342 343 343 344 343 344 344 344 345 344 344 344 343 343 343 343 344 343 343 343 342 341 340
336 336 338 335 335 335 335 335 335 335 335 332 332 333 333 331 330 330 327 325 321 323 327 327 327 328 324 321 318 315 313 316 320 319 331 331 332 333 336 334 333 333 333 334 334 334 333 332 334 336 335 334 333 334 333 334 335 338 338 341 341 341 342 343 344 344 345 345 344 344 345 344 344 344 344 344 344 344 344 344 343 342 342 341 341
334 335 336 338 334 335 333 332 333 332 332 332 333 332 332 332 331 330 327 325 325 324 323 328 328 331 328 323 320 317 315 319 318 314 323 327 327 332 334 334 332 333 333 333 334 334 336 334 334 334 335 334 334 335 334 334 337 335 333 333 341 342 342 343 344 345 345 345 344 344 344 344 344 344 344 344 344 344 344 344 343 342 342 341 340
334 335 335 336 335 335 334 333 333 332 334 332 333 334 334 334 333 330 330 329 326 323 324 324 324 326 331 330 330 328 323 319 316 318 315 319 324 328 331 334 333 332 332 334 335 334 334 335 334 333 334 335 335 335 336 336 338 338 341 341 342 342 342 343 344 345 345 344 344 344 344 344 344 344 344 344 344 344 344 344 342 341 341 340 339
334 334 335 336 336 334 333 331 331 333 335 333 334 334 334 332 334 332 331 330 328 327 324 324 324 322 329 328 329 332 330 327 323 320 316 315 316 323 329 331 331 333 334 334 335 333 333 334 334 333 333 334 334 334 334 336 333 331 333 340 340 341 341 343 343 343 343 344 344 343 344 344 344 344 344 345 345 344 342 342 342 342 341 340 339
334 334 334 335 337 335 335 333 332 333 337 335 334 335 334 332 331 330 330 330 329 328 326 326 326 324 327 328 328 327 329 327 328 324 321 314 314 316 320 328 329 331 332 332 333 335 335 336 336 336 336 334 336 334 333 335 337 335 337 340 340 341 343 343 343 343 343 343 344 344 344 344 344 344 344 344 344 344 344 342 342 341 340 339 338
332 333 334 334 334 335 335 335 334 335 339 335 334 334 333 332 332 330 329 329 329 330 329 328 328 326 327 328 326 327 330 328 326 323 323 319 315 315 318 319 320 322 328 331 333 335 334 334 335 336 336 334 335 334 333 334 337 339 338 339 342 343 343 342 342 342 342 343 343 344 344 344 344 344 344 344 344 344 343 342 341 340 340 338 339
332 332 332 334 334 336 335 335 334 336 338 336 333 334 333 332 331 330 330 329 329 329 329 328 330 328 327 327 327 328 327 325 324 322 320 317 317 318 319 323 322 320 322 328 331 335 334 334 334 335 336 334 334 334 333 333 336 338 337 337 341 342 342 342 343 343 342 342 342 341 342 342 342 342 343 343 343 343 343 341 340 339 339 338 338
331 331 330 332 333 334 335 333 334 333 333 335 335 335 334 332 331 331 330 329 328 330 328 328 329 329 328 328 327 329 327 324 324 325 323 320 320 316 317 319 319 322 327 327 331 331 332 333 335 335 336 333 333 334 335 336 333 335 333 333 337 342 343 342 342 341 341 341 340 340 341 341 342 343 343 343 343 343 342 341 340 339 339 339 339
330 330 331 331 332 331 331 332 332 333 333 335 335 335 334 332 331 331 330 329 329 329 328 328 329 329 329 330 330 330 329 326 326 325 325 323 321 317 319 322 317 319 323 326 324 327 330 331 334 334 336 334 335 334 335 334 326 329 330 327 333 339 342 341 340 340 340 340 340 340 340 340 341 342 343 343 344 343 342 341 339 339 339 339 340
330 330 332 332 332 331 332 332 333 333 335 336 336 335 334 332 331 331 330 330 329 329 328 327 327 328 328 329 331 331 329 329 327 326 325 324 320 320 319 319 319 320 322 323 326 323 326 329 332 332 334 334 335 334 332 331 326 330 329 331 332 334 338 341 340 340 339 339 339 339 339 339 340 340 340 342 341 341 340 339 337 339 339 338 338
332 332 333 333 332 331 332 332 332 333 336 336 337 334 333 333 332 331 331 330 330 330 328 327 328 327 328 329 330 330 331 329 329 329 329 327 324 323 321 318 317 317 319 322 320 323 323 326 330 329 331 332 334 334 334 331 328 329 330 331 333 330 331 335 339 340 339 338 338 338 338 339 339 339 338 339 339 338 339 340 338 338 339 338 338
333 334 334 333 332 332 334 334 333 334 335 336 336 334 332 331 331 331 330 332 330 329 328 328 328 327 328 328 330 330 330 330 330 330 331 330 328 324 323 319 316 315 315 317 317 317 324 324 327 329 332 333 334 335 335 332 327 329 330 330 330 326 324 328 333 338 339 338 338 338 337 337 337 338 338 337 337 337 338 339 339 339 339 339 338
333 334 333 334 334 334 334 334 334 333 333 335 336 334 333 332 332 330 330 330 331 329 328 328 328 327 327 329 330 328 328 330 332 332 332 331 330 327 327 324 320 315 312 313 314 315 322 325 324 328 333 334 334 334 333 329 327 327 329 330 328 326 321 323 326 329 330 333 335 336 335 334 334 334 335 335 334 334 335 337 339 339 338 338 337
334 335 333 333 333 337 334 334 334 333 334 334 335 335 334 333 332 332 332 331 330 328 329 329 327 327 327 327 328 327 327 329 328 328 329 330 329 329 329 329 326 321 315 313 313 317 320 324 326 326 329 330 332 332 333 327 325 327 329 330 329 325 318 321 322 322 323 321 319 320 324 331 333 334 334 333 331 332 334 335 337 338 338 337 334
334 333 333 333 333 333 333 332 332 332 333 333 335 335 334 333 332 332 332 332 330 328 328 329 328 328 328 329 328 328 327 327 327 328 329 329 328 327 327 327 329 326 321 315 313 319 323 321 323 328 326 329 332 331 328 324 324 324 327 329 327 320 320 321 320 319 317 315 314 314 315 322 328 330 331 331 329 328 331 332 333 333 331 332 327
334 334 334 334 334 333 333 333 331 331 332 333 334 335 334 333 332 331 332 332 331 329 329 330 331 329 330 331 329 328 328 326 325 327 327 327 327 326 326 326 326 328 324 317 315 319 323 322 323 326 327 325 327 326 322 325 325 323 323 323 321 319 322 323 318 317 315 312 310 310 310 313 319 319 323 326 323 322 324 326 325 322 321 323 322
334 334 334 335 335 334 334 334 332 331 331 332 333 334 333 332 332 332 331 331 331 329 329 329 330 330 329 328 328 327 326 326 325 325 324 325 324 324 325 325 325 327 324 318 319 318 321 322 323 323 324 324 322 322 321 320 320 322 322 321 320 323 324 323 321 315 313 311 309 308 309 308 310 309 315 321 317 314 316 317 312 313 320 323 323
335 335 335 335 336 335 334 334 333 332 332 332 333 333 333 332 332 333 331 330 329 328 328 328 328 328 327 326 326 326 326 326 325 325 324 324 324 324 325 327 326 328 325 321 318 317 317 321 322 323 323 322 319 322 319 317 317 320 319 319 321 323 323 323 322 319 312 311 308 308 308 307 308 308 309 316 314 309 308 309 310 312 314 317 320
335 336 336 335 335 335 335 335 334 333 333 333 334 334 333 333 332 332 332 330 329 328 328 328 328 326 325 325 325 325 325 323 324 325 324 324 324 324 325 326 326 327 327 324 320 318 320 319 322 320 320 320 317 319 321 319 318 319 317 317 318 322 325 324 322 322 313 310 309 307 308 308 308 308 308 310 310 309 309 309 308 307 307 309 312
334 335 336 336 335 335 335 335 334 333 333 334 334 334 334 333 333 332 332 331 330 329 329 328 327 326 325 324 324 325 325 323 323 323 323 323 324 324 325 325 326 328 328 324 323 318 317 320 320 319 320 317 318 319 320 318 317 317 316 315 316 318 318 323 323 322 318 310 309 309 309 308 309 309 308 308 309 309 309 308 307 306 306 307 309
333 333 335 336 335 335 335 335 334 334 333 334 334 334 334 334 334 333 333 331 330 330 330 329 331 326 325 325 325 325 325 323 321 322 323 323 324 325 326 325 328 328 327 326 325 323 321 320 319 319 318 316 317 317 317 317 315 315 314 314 315 315 315 316 325 325 316 310 310 310 309 309 310 309 308 309 309 309 308 308 307 307 307 306 308
332 333 333 335 336 335 336 336 335 335 334 334 334 334 335 334 334 334 333 332 331 330 330 329 329 326 325 325 325 325 324 323 322 322 323 323 324 326 326 327 327 328 327 325 324 323 321 320 319 317 316 316 314 315 316 315 314 312 313 312 312 314 314 315 316 322 320 317 316 317 311 309 308 308 309 308 307 306 306 306 307 307 307 306 306
332 332 333 334 335 335 336 336 336 335 335 334 334 334 335 335 334 333 332 332 332 331 330 329 328 326 326 325 325 325 325 324 323 323 324 324 326 327 329 328 326 326 326 325 324 323 321 320 317 317 316 316 313 313 316 315 313 311 311 310 311 311 311 311 315 316 317 316 314 316 315 315 312 310 308 306 307 307 307 307 307 308 308 308 305
332 332 332 333 334 335 335 335 336 336 335 334 334 334 335 335 334 333 333 332 331 331 330 329 328 327 326 326 325 326 326 325 325 324 325 325 327 327 327 328 327 325 325 323 323 322 321 319 318 316 313 314 313 313 315 313 312 312 311 308 309 310 312 309 310 313 313 312 310 313 313 313 312 311 309 308 309 309 309 308 308 308 309 309 307
332 332 333 333 333 334 335 335 335 335 335 334 334 334 334 334 334 333 332 332 332 330 329 328 327 326 326 326 326 326 328 331 332 330 329 331 328 327 327 327 326 326 324 323 322 321 319 319 317 314 313 312 313 313 311 309 309 310 309 309 307 308 309 310 312 311 312 310 309 307 311 312 313 313 314 313 313 312 312 309 309 310 310 308 306
332 332 332 333 333 333 333 333 333 334 334 334 335 327 328 334 334 333 333 332 332 331 330 328 327 326 326 325 327 334 334 335 334 328 322 324 330 331 329 327 327 325 324 322 321 320 320 318 317 315 311 311 310 313 312 310 308 309 309 307 308 308 306 304 305 306 311 308 307 308 309 312 311 311 311 314 314 316 312 311 308 308 307 305 304
332 332 332 331 332 333 333 333 331 332 333 334 324 313 313 320 333 333 332 331 331 331 329 328 327 326 325 325 325 331 335 336 333 323 319 318 318 322 323 329 332 328 324 322 321 320 320 319 317 315 313 310 312 313 313 311 309 312 309 308 309 305 303 302 304 305 309 309 305 305 309 309 309 309 310 313 313 311 310 308 304 305 305 304 304
331 331 331 331 332 332 333 333 332 332 332 330 313 311 310 310 322 333 332 331 331 330 329 328 327 326 325 325 325 327 330 330 330 328 324 320 313 311 312 317 318 321 321 325 322 318 318 318 315 317 314 312 313 313 310 310 311 308 307 308 305 304 302 302 301 302 306 311 307 305 308 307 307 311 312 314 310 310 308 304 304 304 304 303 304
331 330 330 330 330 332 333 332 332 332 332 320 311 310 308 308 310 327 332 331 330 329 329 328 327 326 325 325 324 325 329 335 335 329 325 324 319 316 316 319 319 315 308 310 315 326 322 320 318 316 315 313 312 314 314 313 312 310 307 308 305 304 302 302 301 300 305 308 308 306 304 305 305 307 311 311 309 311 310 305 304 304 303 302 302
329 328 325 327 328 329 331 332 332 333 332 323 310 309 308 306 306 315 332 330 330 330 329 329 328 326 326 325 324 324 326 329 331 329 326 323 321 319 321 322 323 328 314 307 311 315 321 322 320 318 317 315 315 314 316 313 312 311 310 309 307 305 305 305 304 305 307 311 309 303 303 302 305 308 309 310 309 309 306 303 302 303 302 301 301
326 326 325 325 325 326 326 328 331 332 333 318 309 307 307 305 305 312 331 331 330 329 329 329 328 327 326 326 326 326 326 327 330 330 326 324 320 321 319 322 323 325 323 322 321 321 323 322 321 320 318 316 316 316 316 313 315 314 314 311 310 308 306 306 309 306 307 308 307 306 304 302 301 306 308 307 309 308 307 304 303 302 302 301 301
326 326 325 326 325 325 326 327 328 326 332 313 307 306 306 305 304 320 330 330 329 329 329 329 329 328 327 326 326 326 327 327 328 315 322 324 322 321 320 320 320 319 321 325 315 317 323 322 321 319 318 318 313 315 316 315 313 315 317 311 310 308 307 305 307 302 303 304 308 307 303 302 300 303 302 306 306 305 307 306 304 303 302 301 301
325 325 325 325 326 326 326 327 327 326 329 315 305 306 305 304 306 324 329 330 330 329 329 329 329 328 327 327 326 326 327 327 319 306 308 322 323 322 321 319 318 317 319 316 303 299 298 301 306 309 308 306 304 304 305 306 312 313 310 309 306 305 304 303 303 302 304 302 302 307 303 303 302 301 302 305 306 306 305 305 305 303 302 301 301
325 325 326 326 326 327 326 326 327 326 326 322 306 304 305 303 313 325 329 330 329 329 329 329 329 328 328 333 332 326 328 328 310 303 304 320 323 322 321 319 318 317 318 314 312 306 297 297 297 300 304 301 302 302 304 304 304 311 311 308 307 305 306 304 301 302 300 302 303 307 306 304 299 299 299 301 303 304 306 305 304 304 302 301 300
327 327 326 326 327 327 327 327 329 328 327 324 307 302 303 302 311 326 328 329 329 328 328 327 327 328 327 332 332 328 329 325 306 303 302 319 325 323 322 321 320 319 320 316 313 309 307 307 307 307 306 308 309 311 312 304 305 315 311 310 307 307 306 303 303 300 303 303 303 309 309 303 302 303 300 300 299 301 305 306 305 305 304 304 303
Wind_Speed
5 5 4 5 4 4 5 5 5 5 4 4 4 4 5 5 5 4 5 4 4 4 3 5 4 5 6 7 6 4 4 4 5 5 4 5 5 7 12 13 12 11 11 11 11 11 10 9 9 9 9 8 8 8 8 8 7 7 6 6 5 5 6 6 6 7 8 7 6 6 6 6 5 6 8 9 9 10 11 11 11 12 12 12 13
6 5 6 5 5 4 5 5 5 5 4 5 5 5 6 5 5 5 4 5 6 6 5 5 6 5 4 6 5 1 4 5 5 5 5 5 5 5 13 13 13 12 12 11 11 11 11 11 10 10 10 10 9 9 9 9 8 8 7 6 6 6 6 7 7 7 7 7 6 6 6 5 6 6 8 9 10 10 11 11 11 12 12 12 13
6 6 5 5 5 5 5 4 5 5 5 6 4 5 5 5 5 5 5 5 6 6 5 6 4 3 3 2 1 1 6 5 5 5 5 5 5 4 7 14 13 13 12 12 11 11 11 11 11 11 11 10 10 10 9 9 8 7 6 6 6 7 7 7 7 7 6 7 7 6 6 6 7 7 8 9 10 10 10 11 11 11 12 12 12
6 4 5 5 5 5 5 5 6 5 6 6 5 5 6 6 6 5 5 5 4 6 3 3 2 3 2 3 4 5 3 6 5 5 4 4 4 4 5 6 13 13 12 12 12 12 12 12 12 12 12 12 11 10 10 9 9 8 7 6 7 6 6 6 6 6 6 6 7 7 7 7 7 8 8 9 10 10 10 11 11 11 11 11 11
6 6 6 5 5 6 6 7 7 6 5 6 6 5 5 5 5 5 5 4 2 3 2 3 4 2 3 4 5 4 3 4 5 5 5 4 4 5 4 5 5 11 13 13 13 13 13 13 13 13 13 12 12 11 10 9 9 8 8 8 8 6 6 6 6 6 6 7 8 8 8 8 8 8 9 9 10 10 10 10 10 10 10 11 10
6 5 5 5 4 5 7 8 6 5 6 6 6 6 7 7 7 6 4 5 4 4 4 4 3 3 4 2 5 3 2 4 3 5 4 4 5 4 5 5 5 5 6 12 14 13 14 14 14 13 13 12 12 11 11 10 10 10 9 9 9 8 7 6 7 6 7 7 8 9 8 9 9 9 9 10 10 10 10 10 10 9 9 10 9
6 6 5 5 4 4 4 5 5 5 6 7 7 8 8 6 2 1 1 3 3 2 4 5 4 4 3 3 4 4 2 3 3 4 5 4 5 4 5 5 5 5 5 5 9 14 15 14 14 13 13 12 12 12 12 11 11 11 10 10 9 9 8 7 8 8 8 9 10 9 10 9 10 10 10 10 10 10 10 10 10 10 9 9 8
6 5 6 4 4 4 4 3 3 2 1 3 3 5 4 4 2 2 0 1 3 2 2 4 3 4 2 3 3 2 3 2 2 3 4 5 5 5 5 5 5 5 5 5 5 6 13 13 12 12 12 12 12 12 12 12 12 11 11 10 9 10 9 8 9 10 10 10 11 11 11 11 10 10 11 11 11 11 11 11 10 10 9 8 7
5 5 5 4 4 4 3 2 1 1 2 2 4 5 4 4 2 2 2 2 3 3 3 3 3 2 1 1 1 2 3 2 2 2 2 4 5 5 5 5 5 6 5 5 5 5 8 14 13 13 13 13 12 13 13 12 12 12 12 12 11 11 11 9 9 11 11 11 11 11 11 11 11 11 11 12 12 12 11 11 11 10 10 10 7
5 5 4 3 4 4 2 1 1 1 2 2 3 4 4 5 4 2 4 3 2 3 3 3 3 2 1 1 1 1 1 2 2 1 2 2 3 4 6 6 5 5 6 5 5 6 5 7 12 14 15 14 13 13 14 14 14 14 14 13 12 11 11 9 8 9 10 11 11 11 11 11 11 11 12 12 12 12 13 13 12 11 10 10 7
4 4 4 4 4 3 2 1 1 2 1 1 2 2 3 3 4 3 1 3 4 4 5 4 3 2 2 1 0 1 1 1 1 1 1 2 2 1 3 6 5 4 5 6 6 6 6 6 6 6 8 16 14 14 15 15 14 13 13 12 12 12 11 10 7 6 8 10 11 11 11 11 11 12 12 12 13 13 14 13 13 12 11 11 8
5 5 4 4 3 3 2 2 1 2 1 1 3 4 4 3 3 3 3 2 1 2 3 3 2 1 0 0 0 0 0 1 1 1 1 1 1 1 2 2 5 5 5 5 5 5 6 6 5 4 2 6 11 11 11 12 11 11 12 12 12 13 13 13 10 9 9 9 9 9 10 10 11 12 12 13 14 14 14 13 13 12 12 11 10
5 5 5 5 3 2 2 3 2 2 2 2 3 3 3 3 3 3 4 4 1 2 2 4 4 1 1 1 1 1 1 1 3 2 2 1 1 2 2 3 3 4 5 4 4 5 6 5 6 4 5 5 5 8 9 10 10 10 12 13 13 13 13 13 12 10 9 8 8 9 10 11 11 12 13 13 14 13 14 14 13 12 12 11 9
4 5 5 5 4 3 3 4 3 3 3 2 2 2 3 3 3 1 0 4 2 1 2 4 1 3 2 1 3 4 1 1 1 1 2 2 2 2 2 4 5 5 4 4 5 6 6 4 3 4 4 4 3 2 4 5 7 10 12 13 13 13 13 14 14 11 10 10 9 9 10 11 12 12 13 14 13 12 12 12 11 11 10 10 9
4 4 5 4 5 4 4 3 3 2 2 2 2 1 2 3 4 5 1 2 2 0 1 1 3 2 2 3 2 1 2 2 1 2 2 2 2 3 4 4 6 5 5 5 5 5 2 1 3 3 3 3 3 3 3 3 3 6 9 12 13 13 14 14 13 13 11 10 10 10 10 12 12 13 13 12 11 10 11 11 11 10 10 8 4
4 3 4 4 4 4 3 2 3 2 2 3 2 2 2 3 3 4 4 3 0 0 0 0 4 6 0 1 2 1 2 1 2 2 2 2 3 4 4 5 5 4 2 4 3 1 2 2 4 4 2 3 3 3 4 3 5 7 8 9 10 10 11 12 13 13 13 11 10 9 9 11 12 13 12 11 10 9 10 11 10 9 8 6 4
5 5 4 3 3 3 2 0 0 1 3 3 3 4 3 4 4 4 4 6 4 1 1 1 2 1 5 3 2 1 2 1 1 2 0 1 2 3 4 4 4 3 3 5 3 3 3 3 3 2 3 3 3 3 3 3 3 2 3 5 7 8 9 10 11 12 12 11 10 9 9 10 12 12 12 10 9 9 9 10 9 8 8 6 4
4 3 3 2 2 2 3 5 4 3 5 7 6 3 3 4 5 5 5 3 5 4 2 1 1 1 1 2 3 2 2 1 0 1 1 1 2 2 4 3 3 4 4 5 4 3 2 3 2 2 2 2 2 2 2 2 2 1 1 2 4 6 7 8 8 9 9 8 8 6 7 8 10 12 12 11 9 9 10 10 7 6 6 5 5
4 4 4 3 3 4 5 5 4 5 5 5 5 6 5 5 4 4 5 4 4 4 5 4 1 1 1 1 1 1 2 2 1 0 1 2 1 3 4 4 3 3 4 3 3 2 2 3 3 2 1 1 1 2 2 2 3 2 3 3 4 5 5 4 4 4 3 3 3 4 6 8 10 11 11 10 9 8 8 7 6 5 5 4 4
5 5 4 4 4 4 4 4 5 4 4 5 6 5 4 3 4 3 3 4 5 6 5 5 5 3 3 3 1 1 1 1 2 2 1 0 1 3 3 3 3 4 4 3 3 3 3 3 1 2 3 2 2 2 1 1 1 0 1 1 1 1 1 1 2 2 3 3 4 5 6 8 10 11 10 9 10 9 6 4 4 5 5 4 5
5 4 4 4 4 4 5 5 5 5 5 5 5 5 6 6 4 3 4 3 4 3 4 5 5 4 4 2 2 1 1 1 1 2 2 2 4 3 3 1 1 4 5 3 3 4 3 2 2 1 3 2 3 2 1 1 1 0 1 1 1 1 2 2 3 4 4 4 5 6 6 8 10 11 11 11 11 10 7 2 3 4 4 5 6
5 4 4 4 4 4 5 6 6 6 6 6 5 5 4 4 4 5 4 4 3 4 5 4 5 3 3 5 3 2 2 2 1 2 0 2 3 2 3 2 3 3 2 3 3 3 2 2 1 1 1 2 2 2 1 0 0 2 1 2 3 3 3 4 4 4 4 4 5 6 7 8 10 11 12 11 10 9 8 2 3 3 4 5 6
6 5 5 5 5 6 6 5 4 4 4 4 5 6 5 5 4 3 4 6 5 5 4 3 4 4 4 5 6 7 6 5 5 4 4 2 2 4 4 4 4 3 1 1 2 2 1 1 1 1 1 2 2 1 1 0 0 1 1 3 2 2 2 1 2 3 4 5 5 5 6 8 10 11 11 10 9 10 7 4 2 4 5 6 6
6 6 6 7 6 6 5 4 5 5 6 5 5 5 4 4 4 5 4 4 3 4 4 4 4 4 4 4 5 5 4 4 5 5 6 5 5 3 2 1 1 3 3 1 1 1 1 0 1 2 1 2 1 1 1 1 1 2 2 3 2 2 3 2 1 2 3 4 5 5 7 8 9 10 10 9 9 10 8 5 2 4 4 6 7
6 6 6 7 6 6 5 5 5 6 6 6 6 5 5 5 5 5 5 5 5 5 5 5 5 5 5 4 4 4 5 3 4 5 4 4 4 2 3 1 1 1 1 1 0 2 1 1 1 2 3 2 2 2 3 2 1 3 4 3 3 2 1 2 1 1 2 1 2 3 5 6 8 9 9 9 10 10 11 6 3 4 5 7 7
6 6 5 5 5 5 4 5 6 6 6 6 5 6 5 6 5 6 7 5 4 5 5 3 4 4 3 5 5 5 4 4 4 4 4 4 2 3 2 0 1 2 1 1 1 0 0 0 0 2 3 3 3 3 3 2 2 3 4 4 4 3 1 2 2 2 2 1 1 3 4 6 7 9 9 10 10 9 9 5 4 4 5 5 6
7 6 5 5 6 5 5 6 7 7 7 6 6 6 6 6 5 6 5 4 5 5 4 4 5 5 4 5 5 4 5 5 5 5 5 5 4 3 3 1 0 1 1 1 1 0 2 1 2 2 2 3 3 3 3 2 3 5 5 4 3 3 2 2 2 3 2 1 2 4 5 7 9 10 11 10 9 8 8 6 4 5 5 6 7
5 5 6 6 6 6 6 7 7 7 8 8 7 6 6 6 5 4 5 3 5 6 5 5 6 6 5 4 4 5 4 5 5 5 5 5 4 2 4 2 1 1 2 0 1 1 1 1 0 2 4 5 4 3 3 3 2 7 5 4 3 3 2 2 1 1 1 1 3 5 6 7 9 10 11 10 10 11 10 9 6 6 6 8 7
5 4 4 4 5 5 6 5 5 6 6 6 7 7 7 6 6 5 5 4 5 6 5 6 6 5 4 5 5 3 3 4 4 5 5 4 3 2 2 3 3 2 1 1 2 3 0 1 2 0 2 3 4 2 2 1 1 2 4 4 4 3 4 3 2 1 1 3 4 6 7 9 10 11 11 11 12 12 13 12 12 7 6 5 7
6 4 4 4 4 5 5 5 4 4 5 5 6 6 6 6 6 6 6 5 4 3 4 5 5 3 3 3 3 4 2 5 5 4 5 5 5 5 4 1 2 4 3 3 3 2 1 1 1 1 0 2 3 3 2 1 2 3 3 4 4 3 5 4 3 1 4 4 5 6 8 10 11 11 10 10 10 9 9 10 11 10 5 5 1
5 5 5 6 6 5 4 5 5 5 4 5 6 6 6 6 6 6 5 5 5 5 5 5 4 4 4 5 5 5 5 5 4 4 4 5 6 5 4 2 4 4 4 4 2 2 3 3 2 2 3 2 3 3 3 3 3 5 5 4 3 5 6 2 2 3 5 5 5 7 8 9 9 10 10 10 9 10 10 10 10 10 8 4 5
6 6 6 6 7 6 5 6 6 5 5 5 6 6 6 6 6 6 5 6 6 6 5 5 5 6 6 7 5 5 5 3 3 3 3 3 3 4 5 4 3 4 4 5 4 3 1 2 2 2 4 3 3 5 3 2 2 5 4 4 4 7 3 2 5 6 5 5 5 5 7 8 8 9 9 9 9 10 10 11 11 10 8 5 6
7 7 7 7 7 7 6 6 6 6 6 6 5 6 6 6 6 6 6 6 7 6 5 6 5 5 6 5 4 4 3 4 4 2 2 3 1 1 2 3 4 4 4 3 5 4 2 1 3 3 3 6 3 1 3 2 2 3 4 4 4 4 3 3 3 4 6 5 4 5 6 7 8 9 9 8 8 8 9 9 10 10 9 7 6
8 8 8 7 7 7 6 6 6 6 6 6 6 6 7 7 6 5 6 7 6 5 5 6 6 5 5 6 6 5 4 5 5 5 4 3 4 4 4 5 5 4 4 3 3 5 3 1 4 3 2 1 4 0 4 4 3 3 5 3 1 3 3 3 2 3 7 6 4 4 5 6 7 8 9 8 7 7 8 8 8 8 8 8 2
8 9 9 8 8 7 6 7 7 7 7 7 6 7 7 7 7 6 6 7 7 6 7 7 7 5 5 6 6 5 4 4 5 5 4 4 4 5 4 3 4 4 5 3 4 3 6 2 2 5 2 1 3 3 1 3 3 4 4 4 3 2 1 3 3 2 6 5 5 4 3 5 6 6 8 7 5 6 7 8 8 7 6 4 2
9 8 8 9 8 7 8 8 7 7 7 7 7 7 8 8 8 8 7 7 6 7 8 8 7 7 7 6 6 6 5 5 4 4 4 3 4 4 4 3 3 4 4 3 5 5 2 6 1 4 2 4 2 2 3 3 4 3 3 1 1 3 2 1 2 2 3 6 4 3 3 4 5 5 7 7 6 6 7 7 8 8 8 6 3
8 8 7 7 8 8 9 9 8 8 8 8 8 7 7 7 8 8 8 8 7 7 8 8 7 7 7 8 7 6 5 6 4 5 5 6 6 5 4 3 4 4 3 4 5 5 6 6 4 0 2 2 1 2 2 6 2 3 2 3 2 3 3 2 2 2 1 2 2 5 1 1 3 3 5 7 7 6 7 8 8 9 10 9 6
9 8 9 8 8 9 9 9 8 8 8 7 8 8 8 7 6 7 7 8 8 7 7 7 7 7 7 8 6 6 7 7 7 5 5 6 4 4 3 3 3 4 5 4 5 6 7 7 6 3 1 5 2 1 1 3 6 3 3 3 3 3 3 3 2 1 1 1 1 2 1 2 6 6 5 5 7 6 7 8 8 8 9 9 7
9 9 9 9 9 9 9 8 9 9 8 8 8 7 7 7 7 6 6 6 7 7 7 8 7 7 7 7 6 7 8 8 7 7 6 5 5 5 5 5 4 4 6 6 6 7 7 6 3 4 5 1 3 4 0 1 3 3 4 2 1 2 1 2 0 1 1 0 2 0 4 3 4 4 0 3 7 5 6 8 9 10 10 9 7
9 10 10 10 9 8 9 9 9 8 8 8 7 7 7 8 7 7 6 6 6 6 6 7 7 7 7 7 7 7 8 7 7 6 6 7 5 5 5 5 5 5 6 6 6 7 7 6 5 5 2 4 1 1 1 2 2 1 1 2 3 1 0 1 1 0 1 0 1 2 2 3 1 2 2 4 8 5 7 8 8 10 11 10 6
9 9 9 10 9 9 9 9 8 8 8 9 8 8 8 8 7 7 7 7 7 7 6 6 5 6 6 6 6 6 8 9 10 7 8 7 7 6 5 6 7 7 6 6 7 6 6 6 4 2 4 4 4 6 4 3 4 7 3 2 2 2 2 0 1 1 2 1 2 2 2 2 2 3 2 2 3 1 3 5 6 10 11 10 5
10 10 9 9 10 11 10 9 8 8 8 8 10 15 12 9 8 7 7 7 7 7 7 6 5 5 6 6 6 11 13 13 11 11 11 10 8 6 8 7 7 7 7 7 6 6 6 6 6 5 5 6 6 7 6 5 3 2 4 3 3 2 0 1 3 3 0 1 3 4 2 2 2 0 1 4 2 2 2 4 5 8 10 9 3
10 10 10 11 10 10 11 10 10 9 8 8 14 15 16 16 10 8 8 7 7 7 7 7 8 7 6 6 5 8 10 10 8 12 11 10 9 6 9 11 9 9 7 7 6 6 7 6 5 4 5 6 7 6 7 5 3 5 5 4 4 1 1 1 0 4 1 1 2 2 4 3 0 1 2 2 2 2 4 4 9 10 11 7 3
10 9 10 11 11 10 9 9 10 10 9 12 15 16 16 16 14 9 8 7 7 7 7 8 7 7 7 6 6 5 6 7 6 6 8 11 10 8 8 11 11 12 12 10 7 5 5 6 5 6 6 7 7 6 4 4 5 3 3 4 3 3 3 1 1 1 2 0 0 1 5 3 2 3 1 0 1 2 3 7 9 9 9 5 2
7 8 11 10 10 9 9 10 10 10 10 14 16 17 17 17 17 13 8 8 8 8 8 8 8 7 7 6 6 6 6 11 8 5 5 6 8 8 9 10 11 11 12 13 12 11 8 7 7 6 7 6 6 7 7 6 5 6 3 3 2 3 3 3 4 2 4 2 1 1 1 2 2 1 2 1 1 2 4 7 10 9 6 4 4
6 6 4 4 3 3 6 9 11 10 11 14 18 18 18 19 18 15 9 9 9 9 10 9 8 8 8 7 7 7 6 6 6 6 5 5 4 3 3 5 6 7 8 9 11 11 10 8 7 8 7 5 8 8 6 6 8 7 6 6 4 3 3 3 2 3 3 0 2 2 2 2 2 2 2 2 2 3 4 6 9 7 5 4 5
7 9 11 11 10 9 5 4 6 9 10 16 17 19 19 19 19 16 10 9 9 9 9 9 9 9 9 8 8 8 7 7 7 8 7 6 4 4 4 5 5 6 6 6 5 5 5 4 7 7 6 7 6 7 8 7 9 9 9 7 8 5 3 0 0 2 3 1 3 2 2 2 1 1 3 0 1 3 3 5 8 7 5 5 6
6 7 8 9 12 13 14 14 11 8 10 15 18 20 21 19 19 12 10 10 10 9 10 9 9 9 8 8 8 8 7 8 10 13 10 7 6 6 6 5 4 4 5 2 1 2 2 5 7 7 6 8 8 8 9 9 5 5 4 5 4 3 3 1 1 3 2 2 2 3 0 1 0 1 1 2 2 1 3 3 6 7 4 4 6
8 9 10 11 10 10 11 11 12 13 12 11 17 20 21 21 15 10 10 9 9 10 10 10 10 9 8 9 8 8 8 8 10 14 14 11 7 8 7 6 5 4 6 1 4 6 7 6 6 7 10 11 11 12 14 14 10 8 7 6 4 4 4 2 1 1 1 2 1 3 2 1 1 0 0 2 1 2 2 3 3 6 5 3 5
10 10 10 10 9 8 10 11 12 12 12 14 17 19 22 20 18 13 11 10 10 10 9 8 8 8 9 15 12 9 9 9 13 16 16 13 9 8 7 6 5 5 6 2 1 1 5 5 6 5 2 9 12 13 15 14 14 11 9 8 6 6 6 5 4 3 3 2 1 3 2 2 1 1 1 2 2 0 1 2 2 3 4 4 3
12 11 9 9 10 9 10 11 15 15 12 13 14 17 19 21 18 11 11 10 10 9 9 8 7 7 8 10 15 12 10 11 16 17 17 14 9 9 9 8 8 8 8 6 5 3 1 1 1 1 2 1 3 6 8 13 15 11 8 8 7 7 7 6 4 1 1 2 2 4 3 1 1 0 2 1 1 1 1 1 1 1 2 2 1
Wind_Direction
185 186 164 187 188 188 188 191 192 204 196 213 201 209 217 211 218 229 236 254 258 261 248 253 243 239 235 253 249 228 171 160 158 160 166 184 183 183 182 182 182 185 190 193 200 204 209 213 209 209 212 221 228 232 236 238 240 237 238 249 260 274 284 288 293 300 303 305 301 301 307 313 315 315 317 321 325 329 331 330 330 330 334 333 337
189 176 174 185 187 197 198 198 198 203 197 214 209 207 218 214 217 222 230 242 252 248 227 242 235 245 251 252 260 225 183 158 161 169 174 180 180 186 185 183 184 190 195 197 202 208 212 214 217 214 215 220 225 231 235 240 245 247 248 251 262 275 280 287 292 301 301 292 289 293 305 308 310 307 311 317 321 324 324 325 325 328 330 330 338
191 182 177 176 185 198 212 204 206 209 204 220 210 208 219 228 219 215 216 229 242 260 246 250 238 212 202 204 255 150 156 155 157 163 174 176 180 187 188 187 187 193 199 203 208 211 214 215 218 219 220 222 225 228 233 238 246 254 262 266 268 265 267 277 287 296 295 286 283 290 299 306 308 312 315 313 314 316 317 320 319 321 322 326 338
189 180 177 174 186 202 214 218 222 209 206 218 215 211 208 228 232 229 226 220 258 280 278 198 115 127 166 100 52 59 95 140 157 171 165 175 176 185 187 190 191 194 199 204 212 215 217 219 220 220 224 225 227 231 235 239 250 260 264 264 267 267 256 274 284 288 288 282 283 292 298 302 303 304 305 305 307 309 311 310 310 313 316 323 337
184 181 179 181 190 202 210 221 223 209 212 219 217 218 224 230 240 239 241 231 195 216 90 92 112 85 63 70 73 55 70 113 155 163 167 170 178 183 190 193 194 199 203 207 212 217 221 222 223 226 227 231 235 237 239 243 251 260 264 262 266 256 240 260 268 268 268 271 278 283 287 290 291 291 293 296 297 300 301 300 300 308 311 320 334
177 184 175 175 183 207 212 220 221 208 218 211 209 206 215 211 210 194 185 155 182 144 120 93 79 83 77 90 83 63 76 82 131 166 160 169 173 183 190 197 196 199 207 214 214 218 222 225 226 228 231 235 240 245 248 247 250 252 251 255 261 266 256 242 245 249 254 261 267 272 277 279 280 281 283 286 287 291 293 293 296 302 306 311 324
181 179 189 175 179 194 209 191 183 207 216 208 199 199 189 185 163 185 60 89 133 180 128 138 131 90 67 54 70 69 69 93 104 148 167 170 170 186 193 202 198 201 208 213 222 222 226 230 233 233 234 236 239 243 247 247 248 250 249 255 262 262 260 238 230 234 241 250 256 259 265 269 272 276 278 280 283 286 288 289 291 296 300 305 318
175 174 186 189 194 198 190 180 187 200 165 173 179 194 185 165 126 131 113 96 125 91 89 116 107 109 115 94 106 159 131 113 86 136 170 165 176 183 197 204 202 204 208 214 220 230 231 236 244 251 252 249 245 245 248 252 256 260 263 263 261 259 253 238 222 222 228 236 244 251 255 259 265 269 272 276 279 280 282 285 286 290 294 301 311
166 171 179 191 193 214 213 187 170 73 24 162 177 200 175 172 143 124 140 150 158 133 88 106 100 121 139 116 107 102 97 126 175 171 137 168 188 193 195 207 204 206 210 211 216 223 230 230 230 236 243 250 256 257 255 256 257 258 259 257 254 254 254 246 226 221 222 230 239 247 251 254 259 264 268 272 275 277 279 281 283 286 290 302 308
165 169 181 191 201 207 227 201 123 71 57 151 204 181 179 163 186 173 123 115 140 156 146 139 142 153 155 162 231 62 143 136 191 172 129 152 171 196 205 202 199 202 205 209 208 213 226 235 233 231 231 232 235 241 245 246 245 246 250 253 252 253 258 258 246 225 223 232 241 246 249 254 258 261 266 270 272 274 277 281 284 285 289 296 303
167 170 184 198 201 208 226 219 122 86 44 122 190 182 153 154 176 215 150 145 156 179 174 159 160 160 178 231 257 269 297 247 186 128 168 168 141 133 173 200 193 194 197 206 207 207 212 214 219 219 224 224 225 230 236 242 246 249 254 263 269 270 269 270 267 247 227 232 237 243 249 253 257 261 265 269 271 273 278 279 281 286 291 296 303
169 175 192 201 201 217 216 202 172 123 99 282 202 183 174 161 180 195 209 159 118 157 142 140 103 73 178 350 300 293 305 218 187 200 180 150 126 99 102 166 164 178 192 203 202 206 215 215 222 237 271 242 235 237 242 250 256 257 257 258 260 263 266 266 262 255 251 238 235 241 257 262 260 264 271 277 277 279 282 283 285 291 293 296 298
171 173 191 200 198 208 230 227 198 154 148 194 226 195 178 162 169 175 198 201 151 43 91 125 119 107 19 14 341 323 315 200 214 209 200 167 166 127 133 124 169 185 205 199 199 209 214 216 220 215 225 217 223 231 236 242 249 255 256 256 258 260 264 268 272 269 267 268 258 260 265 270 275 278 276 275 280 286 287 291 293 291 292 294 301
177 179 185 188 179 188 215 229 201 190 181 193 187 139 124 131 131 153 234 187 177 125 175 119 35 161 151 318 337 325 305 333 320 266 183 177 184 185 181 164 190 205 207 207 216 218 214 208 218 212 232 243 241 194 197 222 236 243 247 250 253 255 258 261 264 266 266 267 269 271 273 277 282 286 285 283 282 279 279 282 278 280 286 287 296
189 183 184 190 182 179 211 221 209 192 162 175 135 108 115 121 144 165 125 27 101 81 151 159 156 115 102 77 328 12 326 358 326 260 218 201 181 197 202 198 207 208 206 215 220 230 249 212 236 227 229 242 245 250 239 220 205 225 234 239 241 244 249 257 265 271 272 270 268 269 269 280 284 286 285 282 281 282 282 278 276 278 280 283 274
197 199 184 188 182 188 196 219 220 200 166 189 180 162 123 114 121 169 149 129 17 171 17 107 131 133 352 177 212 121 343 307 281 285 222 208 200 218 222 220 222 231 244 239 236 228 226 176 214 222 202 224 235 237 247 241 246 246 251 253 255 256 260 265 269 271 272 271 270 270 273 280 284 286 287 285 284 281 276 275 271 273 283 282 236
195 197 196 175 166 174 164 211 260 62 49 11 287 207 190 168 160 144 170 164 199 167 263 164 147 138 138 99 45 22 220 241 340 292 344 338 250 235 240 243 238 239 237 247 243 234 233 223 224 198 186 198 219 227 239 249 255 269 280 275 268 264 262 265 269 275 277 276 274 274 277 285 293 293 290 290 287 284 279 278 273 273 275 269 228
189 187 191 155 129 104 120 201 186 150 156 179 229 222 177 168 184 172 180 195 161 166 166 221 173 155 141 153 163 172 188 244 81 287 324 208 275 245 252 246 234 229 234 240 235 232 222 244 232 222 201 201 223 237 233 251 253 245 250 274 297 294 284 278 278 283 290 291 288 289 300 297 291 287 286 288 289 285 282 284 283 277 272 250 217
198 187 174 156 134 138 170 196 190 183 180 195 216 205 191 191 178 171 191 176 143 171 190 174 59 325 202 182 145 141 145 120 222 120 352 322 353 292 276 243 240 246 247 253 266 275 264 229 221 211 188 184 212 218 213 211 235 247 271 301 300 290 292 295 300 310 326 326 315 304 290 286 284 284 285 288 291 283 278 281 283 267 254 228 200
190 190 171 161 153 161 168 184 197 199 188 198 214 207 187 195 175 175 158 172 180 181 192 174 164 224 177 195 204 172 150 100 136 158 171 227 302 313 276 268 269 256 249 262 272 262 244 240 227 162 158 177 188 200 176 123 120 78 70 350 307 299 300 0 29 18 6 341 320 311 299 292 290 288 290 293 289 287 290 284 274 265 249 221 188
191 186 172 162 162 175 181 178 194 201 208 207 215 200 194 191 186 170 180 180 181 178 151 191 183 177 131 156 119 166 155 152 146 128 155 166 267 261 271 313 272 255 253 246 241 249 240 235 226 181 170 168 186 177 150 128 103 91 294 296 217 104 48 31 22 21 5 349 336 322 313 300 295 296 302 306 303 302 303 298 261 261 232 208 206
188 183 170 167 174 184 194 188 192 201 208 205 203 203 202 201 197 191 185 189 179 177 192 183 178 164 157 147 147 131 136 198 214 167 223 187 195 226 232 244 275 278 215 235 245 238 232 262 286 288 155 159 150 157 121 72 342 350 343 359 31 34 35 28 25 9 5 5 1 347 328 321 311 309 313 319 319 312 312 345 270 258 216 205 198
181 182 175 173 184 191 196 198 186 203 221 204 206 205 202 196 188 172 184 193 189 191 204 179 153 166 166 167 173 175 179 182 199 195 172 185 203 254 250 221 215 266 282 187 225 253 207 205 281 259 164 141 116 81 57 296 298 220 9 10 16 59 73 47 41 27 25 20 15 349 333 318 312 315 316 317 323 313 316 328 273 260 218 200 204
185 176 174 184 182 192 188 185 191 201 215 219 212 207 204 192 186 188 196 201 193 187 195 190 176 177 186 178 186 188 184 176 190 186 191 212 180 207 212 262 301 248 272 0 327 15 47 14 259 191 146 111 106 109 126 238 273 107 120 145 186 174 144 112 75 37 33 24 7 348 334 326 322 325 331 341 339 334 326 330 298 256 225 210 213
196 193 194 183 184 187 186 200 207 210 213 210 208 196 197 197 197 195 193 193 196 187 191 202 182 186 195 185 181 191 202 200 163 186 214 182 167 187 262 139 197 287 325 51 317 326 275 88 30 123 125 126 127 162 196 178 168 156 144 154 154 129 140 137 118 90 68 33 329 326 322 320 316 319 330 345 356 0 10 6 321 259 225 213 219
187 205 203 189 194 203 184 205 219 220 216 214 203 193 189 196 197 197 201 194 175 191 201 188 194 202 176 181 195 195 203 184 182 174 185 160 177 200 209 9 181 252 301 27 305 78 339 356 220 118 136 146 175 191 206 158 175 176 155 146 156 164 189 170 146 153 153 214 295 308 312 313 314 318 332 352 357 355 1 356 311 286 249 231 224
190 200 194 195 207 206 209 213 219 221 217 213 203 189 190 195 198 206 200 170 179 175 184 185 197 197 198 193 191 194 193 190 177 198 192 194 180 178 160 253 347 41 32 351 358 177 210 295 161 171 175 154 174 192 207 177 189 142 135 137 137 131 80 40 159 158 175 238 307 312 320 319 318 324 340 351 352 349 346 347 305 283 249 244 238
201 193 202 195 196 200 209 214 213 213 211 205 194 184 189 192 200 200 203 175 178 181 186 190 207 200 200 195 184 203 183 189 195 198 207 204 201 158 152 134 126 345 8 23 3 296 203 167 314 196 168 171 175 191 220 154 169 148 145 135 142 137 121 124 219 173 185 303 300 321 321 321 323 332 342 351 1 4 358 353 337 285 247 229 233
204 205 206 211 203 192 201 208 202 204 208 201 191 187 185 190 191 193 201 190 182 190 182 196 210 198 196 199 207 189 188 199 212 202 201 200 192 180 188 171 158 133 140 212 271 207 282 155 120 268 186 164 155 161 163 72 359 126 143 133 139 131 158 152 149 265 326 296 327 329 331 336 346 357 7 14 14 5 355 353 356 336 263 250 256
197 202 200 216 222 213 209 219 217 210 212 207 195 187 181 189 190 193 197 181 182 171 194 201 210 200 207 212 195 189 180 190 195 185 184 167 152 167 179 194 162 174 175 164 245 200 211 269 123 132 66 111 111 112 147 145 116 110 128 130 134 148 169 145 184 248 290 310 334 334 332 335 347 360 10 15 15 4 0 355 350 357 329 252 25
192 198 201 211 217 221 211 219 218 217 212 200 193 188 184 190 190 190 185 174 177 187 199 198 204 190 203 207 199 201 188 194 179 175 171 161 178 157 181 176 199 211 174 156 127 250 150 174 250 197 140 164 125 123 107 94 100 111 110 131 142 142 140 178 221 257 281 302 319 329 328 332 346 356 3 9 7 358 351 354 358 360 359 332 100
193 199 205 210 214 217 214 211 213 212 208 200 190 192 188 196 193 187 185 175 180 188 191 195 189 198 202 203 203 211 209 200 215 193 181 192 184 153 175 194 209 219 173 154 140 187 215 166 160 84 120 109 118 124 116 109 48 82 115 113 127 134 151 174 211 230 269 282 302 316 322 333 351 5 359 13 5 357 351 351 351 352 351 1 138
190 199 206 211 213 214 212 210 209 208 211 208 198 193 192 197 201 196 180 178 183 186 176 196 208 192 195 198 200 220 194 192 206 195 212 200 149 96 193 208 219 234 188 134 135 136 51 48 99 118 117 118 70 111 123 99 78 71 90 117 144 151 153 186 206 226 255 265 282 304 319 339 1 7 355 7 16 356 350 349 348 348 353 0 162
190 199 205 209 210 209 211 218 218 218 216 213 202 197 198 196 201 203 194 186 188 182 182 197 200 195 188 190 207 205 185 197 183 190 193 181 178 180 211 207 223 230 216 113 149 129 142 56 84 97 124 77 112 292 152 119 80 72 68 87 169 177 169 181 169 208 234 247 266 289 318 348 9 7 347 352 14 351 346 342 346 347 351 351 289
192 195 202 206 210 210 213 216 220 223 218 216 206 197 201 195 194 202 205 196 188 181 193 202 195 185 184 199 210 203 185 186 200 199 175 197 196 189 210 234 237 229 218 145 129 118 133 127 154 141 147 48 123 176 109 106 115 107 93 64 81 98 155 158 162 208 230 232 247 272 341 357 5 1 332 328 355 356 343 334 331 328 326 325 333
189 195 196 200 205 210 212 216 218 218 218 215 209 203 200 195 194 195 200 203 194 189 194 195 191 185 190 195 210 200 191 199 203 185 184 185 203 203 219 241 220 218 198 167 142 135 145 127 204 158 174 116 88 97 108 92 98 75 81 77 48 56 16 128 156 204 240 220 242 285 9 2 352 344 322 318 347 355 337 332 330 326 324 325 306
194 187 195 194 200 205 210 212 212 213 212 210 210 211 208 200 197 194 195 199 199 199 199 194 189 189 192 202 202 189 185 202 204 195 185 185 197 194 217 248 227 194 169 147 133 122 132 142 164 153 148 108 124 151 166 117 54 57 38 63 37 9 21 351 159 192 195 166 286 278 289 41 320 311 305 316 332 336 335 334 334 333 330 335 325
195 197 193 194 200 206 210 211 210 213 212 210 212 211 212 211 203 198 196 196 200 201 202 197 190 190 198 209 201 186 185 195 206 199 192 196 184 193 204 232 208 162 142 129 122 127 134 157 153 125 153 140 113 132 241 146 127 84 44 10 18 26 24 39 1 176 164 170 203 239 114 157 243 255 273 309 303 317 334 333 335 334 331 334 337
195 199 199 198 202 205 211 211 213 212 213 214 216 215 216 216 211 205 202 199 197 199 201 198 193 191 200 206 205 196 193 197 194 194 194 197 192 192 195 202 193 156 144 143 141 140 148 155 162 164 162 185 130 148 112 124 107 133 134 71 25 320 338 110 43 329 49 249 246 126 75 162 213 231 332 293 285 315 334 331 327 331 330 331 332
206 203 200 200 201 202 208 211 214 212 213 215 214 214 215 215 212 210 205 201 197 199 197 198 196 195 198 202 205 205 203 199 196 198 192 191 194 189 189 178 176 168 152 153 146 149 157 164 165 175 168 153 87 42 73 82 76 29 94 136 157 232 274 318 216 204 316 34 21 47 103 100 219 255 278 272 274 302 323 320 327 337 334 340 339
206 209 207 200 195 199 206 208 211 211 214 215 210 205 209 213 209 205 205 202 197 199 201 200 200 200 203 204 206 209 211 209 203 195 198 199 183 180 183 176 173 176 161 164 157 155 160 159 177 120 125 139 163 142 165 170 174 186 189 116 158 259 285 355 307 267 231 313 335 26 89 211 180 216 215 266 264 336 316 322 332 343 336 346 345
210 206 206 207 203 198 199 203 205 210 215 216 212 204 201 204 204 204 201 201 197 198 200 205 209 212 212 210 215 213 214 214 206 204 210 221 222 187 171 175 172 169 169 163 164 166 158 165 187 162 143 172 180 184 180 211 171 101 102 115 144 243 7 7 300 277 171 86 42 355 344 278 147 74 147 240 299 22 341 9 4 341 332 344 351
215 211 203 205 207 206 201 197 200 208 215 218 213 203 203 202 198 198 196 200 198 196 198 198 208 210 216 221 222 222 217 218 212 203 207 212 226 224 186 180 174 167 165 163 175 168 165 178 183 158 167 179 203 195 198 183 172 163 170 161 152 119 132 120 194 308 302 107 70 8 328 307 36 139 198 254 332 347 23 27 0 347 332 343 0
210 207 209 208 207 206 205 202 201 204 212 218 211 206 202 201 198 195 193 191 193 198 199 202 208 205 208 213 222 225 219 212 209 205 205 207 214 220 207 196 186 181 171 167 166 172 172 172 179 201 166 187 200 199 201 151 164 132 136 147 154 149 127 137 171 190 248 112 105 14 309 294 44 77 118 291 346 24 33 17 1 340 336 350 55
202 208 213 209 209 208 207 208 209 206 211 213 211 208 204 198 198 191 193 189 188 198 200 202 202 205 203 203 213 221 228 220 213 200 202 210 221 223 211 208 196 187 190 183 173 176 174 170 187 199 191 181 181 208 199 179 145 155 146 177 190 158 159 156 219 241 294 174 102 39 284 289 18 91 134 294 18 26 20 8 355 349 354 14 74
192 187 183 202 208 223 223 217 212 213 211 208 207 208 205 199 196 191 191 189 192 196 200 199 200 202 202 199 203 215 220 219 210 198 194 207 207 215 205 200 202 206 197 199 198 184 170 178 182 199 216 168 186 198 188 149 148 166 164 195 180 157 159 190 211 201 261 159 187 145 342 311 354 90 220 271 53 42 35 7 359 347 8 52 86
187 192 190 188 184 181 189 226 250 231 220 207 202 207 208 200 196 191 190 189 190 197 200 199 200 200 199 201 201 205 206 211 208 194 187 187 184 192 194 197 203 198 194 203 205 192 192 189 189 202 194 194 196 175 161 174 172 174 173 179 182 179 172 328 346 324 320 306 137 99 233 268 319 78 262 312 33 37 25 17 3 354 14 79 103
208 214 217 204 199 201 201 195 190 221 251 216 201 205 206 203 192 193 193 190 190 194 196 198 200 201 197 196 197 200 204 207 208 195 191 172 177 182 192 205 215 217 218 218 318 271 229 201 192 194 193 188 184 166 166 168 154 118 95 76 83 77 91 60 189 321 325 296 151 133 144 283 244 170 267 20 55 20 19 27 357 4 12 91 115
208 209 214 217 217 210 206 200 194 196 213 231 213 204 204 199 183 195 192 191 193 193 198 196 196 195 195 197 196 200 198 205 198 187 184 168 184 187 189 195 200 208 233 252 41 32 4 340 292 223 184 180 176 167 161 160 154 148 118 120 163 137 121 148 265 358 272 322 312 144 120 299 316 87 38 358 22 312 6 20 7 3 17 75 124
214 216 220 225 225 216 206 200 196 201 208 215 226 215 200 191 184 188 189 187 193 196 200 196 190 193 198 197 196 198 200 203 187 186 183 175 185 187 185 183 190 214 235 202 131 23 27 19 29 31 150 175 169 167 165 164 157 154 146 173 190 145 165 168 192 229 283 324 263 163 115 229 313 47 87 327 357 283 72 47 15 12 33 48 89
220 211 207 218 221 216 209 207 199 201 209 212 207 231 214 194 192 192 187 186 186 196 190 195 193 194 200 204 201 199 203 202 184 185 182 183 183 183 182 179 196 209 217 177 181 186 214 153 319 58 55 97 167 167 176 172 171 175 173 170 148 156 168 188 166 93 1 298 263 167 144 263 73 307 125 53 331 294 64 105 74 19 13 43 79